This demonstration page uses our WeatherBlox Daily Observations layout. Learn more.

Left ArrowRight Arrow

Hourly Observations for May 9, 2016

Temp ( °F °C ) Dew Point ( °F °C ) Humidity (%) Winds ( mph kmh ) Pressure ( in mb ) Visibility ( mi km ) Precip ( " mm )
12:52 am 00:52 Cloudy 64 17.8 55 12.8 73 73 SE 10 17 29.77 1008 10 16 0.00 0.00
1:52 am 01:52 Partly Cloudy 64 17.8 56 13.3 75 75 SE 12 19 29.74 1007 10 16 0.00 0.00
2:52 am 02:52 Clear 64 17.8 56 13.3 75 75 SSE 15 24 29.71 1006 10 16 0.00 0.00
3:52 am 03:52 Clear 64 17.8 57 13.9 78 78 SSE 14 22 29.70 1006 10 16 0.00 0.00
4:52 am 04:52 Clear 63 17.2 57 13.9 81 81 SSE 14 22 29.70 1006 10 16 0.00 0.00
5:52 am 05:52 Clear 63 17.2 57 13.9 81 81 SSE 10 17 29.70 1006 10 16 0.00 0.00
6:52 am 06:52 Sunny 63 17.2 57 13.9 81 81 SSE 9 15 29.73 1007 10 16 0.00 0.00
7:52 am 07:52 Mostly Sunny 65 18.3 58 14.4 78 78 SSE 12 19 29.70 1006 10 16 0.00 0.00
8:52 am 08:52 Cloudy 67 19.4 59 15 76 76 SSE 9 15 29.70 1006 10 16 0.00 0.00
9:52 am 09:52 Partly Cloudy 69 20.6 59 15 70 70 S 10 17 29.72 1007 10 16 0.00 0.00
10:52 am 10:52 Mostly Cloudy 71 21.7 58 14.4 63 63 SW 17 28 29.74 1007 10 16 0.00 0.00
11:52 am 11:52 Partly Cloudy 69 20.6 57 13.9 66 66 S 17 28 29.73 1007 10 16 0.00 0.03
12:52 pm 12:52 Cloudy with Light Rain 68 20 57 13.9 68 68 S 21 33 29.76 1008 10 16 0.00 0.03
1:52 pm 13:52 Mostly Cloudy with Light Rain 65 18.3 60 15.6 84 84 SSE 16 26 29.70 1006 10 16 0.06 1.52
2:49 pm 14:49 Mostly Cloudy 66 19 61 16 83 83 SE 18 30 29.65 1004 10 16 0.00 0.03
2:52 pm 14:52 Mostly Cloudy 66 18.9 59 15 78 78 SE 18 30 29.66 1005 10 16 0.00 0.03
3:29 pm 15:29 Mostly Cloudy 68 20 60 15.6 76 76 SSE 18 30 29.62 1003 10 16 0.00 0.00
3:52 pm 15:52 Mostly Cloudy 68 20 59 15 73 73 SSE 16 26 29.67 1005 10 16 0.00 0.00
4:22 pm 16:22 Partly Cloudy 70 21 61 16 73 73 SSE 18 30 29.62 1003 10 16 0.00 0.00
4:52 pm 16:52 Mostly Cloudy 71 21.7 59 15 66 66 SSE 20 31 29.66 1005 10 16 0.00 0.00
5:52 pm 17:52 Cloudy 69 20.6 60 15.6 73 73 SSE 17 28 29.66 1004 10 16 0.00 0.00
6:30 pm 18:30 Cloudy 70 21 61 16 73 73 SSE 18 30 29.62 1003 10 16 0.00 0.00
6:52 pm 18:52 Partly Cloudy 69 20.6 60 15.6 73 73 SSE 17 28 29.63 1003 10 16 0.00 0.00
7:52 pm 19:52 Mostly Sunny 66 18.9 59 15 78 78 S 12 19 29.65 1004 10 16 0.00 0.00
8:52 pm 20:52 Clear 65 18.3 59 15 81 81 SSE 13 20 29.65 1004 10 16 0.00 0.00
9:52 pm 21:52 Mostly Clear 63 17.2 60 15.6 90 90 SSE 13 20 29.67 1005 10 16 0.00 0.00
10:52 pm 22:52 Clear 63 17.2 59 15 87 87 SSE 13 20 29.66 1005 10 16 0.00 0.00
11:52 pm 23:52 Clear 61 16.1 58 14.4 90 90 SSE 9 15 29.67 1005 10 16 0.00 0.00

Powered by AerisWeather